Weather History for Minneapolis Crystal, MN

Change the Weather History Date:

Tuesday, December 25, 2012

  Actual Average Record
Temperature  
Mean Temperature 3 °F -  
Max Temperature 8 °F 24 °F 42 °F (1999)
Min Temperature -2 °F 9 °F -18 °F (2000)
Degree Days  
Heating Degree Days 62    
Moisture  
Dew Point -4 °F    
Average Humidity 72    
Maximum Humidity 79    
Minimum Humidity 64    
Precipitation  
Precipitation 0.00 in - - ()
Sea Level Pressure  
Sea Level Pressure 30.49 in    
Wind  
Wind Speed 6 mph (NW)    
Max Wind Speed 9 mph    
Max Gust Speed -    
Visibility 10 miles    
Events      
Averages and records for this station are not official NWS values.
T = Trace of Precipitation, MM = Missing Value Source: NWS Daily Summary

Daily Weather History Graph

Daily Weather History Graph

Search for Another Location

Airport:

Trip Planner

Search our weather history database for the weather conditions in past years. The results will help you decide how hot, cold, wet, or windy it might be!

Date:

Astronomy

Dec. 25, 2012 Rise Set
Actual Time 7:50 AM CST 4:36 PM CST
Civil Twilight 7:16 AM CST 5:10 PM CST
Nautical Twilight 6:39 AM CST 5:48 PM CST
Astronomical Twilight 6:03 AM CST 6:23 PM CST
Moon 2:47 PM CST (12/25) 5:21 AM CST (12/25)
Length of Visible Light 9h 54m
Length of Day
8h 46m
Waxing Gibbous, 94% of the Moon is Illuminated
Dec 25
Waxing Gibbous
Dec 28
Full
Jan 4
Last Quarter
Jan 11
New
Jan 18
First Quarter

Hourly Weather History & Observations

Time (CST) Temp. Windchill Dew Point Humidity Pressure Visibility Wind Dir Wind Speed Gust Speed Precip Events Conditions
12:53 AM 3.0 °F -9.3 °F -2.9 °F 76% 30.35 in 10.0 mi NNW 6.9 mph - N/A   Clear
1:53 AM 1.9 °F -10.6 °F -4.0 °F 76% 30.38 in 10.0 mi NW 6.9 mph - N/A   Clear
2:53 AM 1.9 °F -10.6 °F -4.0 °F 76% 30.42 in 10.0 mi NW 6.9 mph - N/A   Clear
3:53 AM 1.0 °F -14.0 °F -4.0 °F 79% 30.43 in 10.0 mi NW 9.2 mph - N/A   Clear
4:53 AM -0.0 °F -15.3 °F -5.1 °F 79% 30.45 in 10.0 mi NW 9.2 mph - N/A   Clear
5:53 AM -0.9 °F -14.1 °F -6.0 °F 79% 30.46 in 10.0 mi NW 6.9 mph - N/A   Clear
6:53 AM -2.0 °F -12.2 °F -7.1 °F 79% 30.48 in 10.0 mi NW 4.6 mph - N/A   Clear
7:53 AM -2.0 °F -15.4 °F -8.0 °F 76% 30.50 in 10.0 mi NW 6.9 mph - N/A   Clear
8:53 AM -0.9 °F -12.7 °F -7.1 °F 75% 30.52 in 10.0 mi NW 5.8 mph - N/A   Clear
9:53 AM 1.0 °F -10.3 °F -7.1 °F 69% 30.53 in 10.0 mi NNW 5.8 mph - N/A   Clear
10:53 AM 1.9 °F -5.6 °F -5.1 °F 72% 30.54 in 10.0 mi WNW 3.5 mph - N/A   Clear
11:53 AM 5.0 °F -5.6 °F -2.9 °F 70% 30.52 in 10.0 mi NW 5.8 mph - N/A   Clear
12:53 PM 6.1 °F -4.3 °F -2.9 °F 67% 30.52 in 10.0 mi West 5.8 mph - N/A   Clear
1:53 PM 8.1 °F -3.2 °F -2.0 °F 64% 30.51 in 10.0 mi NNW 6.9 mph - N/A   Clear
2:53 PM 8.1 °F -2.0 °F -2.0 °F 64% 30.50 in 10.0 mi NW 5.8 mph - N/A   Clear
3:53 PM 8.1 °F -3.2 °F -2.0 °F 64% 30.48 in 10.0 mi NW 6.9 mph - N/A   Clear
4:53 PM 6.1 °F -4.3 °F -2.9 °F 67% 30.50 in 10.0 mi NW 5.8 mph - N/A   Clear
5:53 PM 5.0 °F -5.6 °F -2.9 °F 70% 30.52 in 10.0 mi NW 5.8 mph - N/A   Clear
6:53 PM 5.0 °F -2.1 °F -2.9 °F 70% 30.54 in 10.0 mi NW 3.5 mph - N/A   Clear
7:53 PM 5.0 °F -2.1 °F -2.9 °F 70% 30.53 in 10.0 mi NW 3.5 mph - N/A   Clear
8:53 PM 5.0 °F -4.1 °F -2.9 °F 70% 30.52 in 10.0 mi NNW 4.6 mph - N/A   Clear
9:53 PM 3.9 °F -5.3 °F -2.9 °F 73% 30.49 in 10.0 mi NNW 4.6 mph - N/A   Clear
10:53 PM 3.0 °F -4.4 °F -4.0 °F 73% 30.48 in 10.0 mi NW 3.5 mph - N/A   Clear
11:53 PM 3.0 °F -4.4 °F -4.0 °F 73% 30.48 in 10.0 mi NW 3.5 mph - N/A   Clear